TimeCDT,TemperatureF,Dew PointF,Humidity,Sea Level PressureIn,VisibilityMPH,Wind Direction,Wind SpeedMPH,Gust SpeedMPH,PrecipitationIn,Events,Conditions,WindDirDegrees,DateUTC
12:53 AM,78.1,73.0,84,29.99,10.0,SSE,9.2,-,N/A,,Clear,160,2012-10-10 05:53:00
1:53 AM,78.1,73.9,87,29.98,10.0,South,8.1,-,N/A,,Partly Cloudy,170,2012-10-10 06:53:00
2:53 AM,78.1,73.9,87,29.97,9.0,South,9.2,-,N/A,,Clear,170,2012-10-10 07:53:00
3:53 AM,78.1,75.0,90,29.95,8.0,SSE,6.9,-,N/A,,Clear,160,2012-10-10 08:53:00
4:53 AM,78.1,75.0,90,29.96,8.0,Variable,5.8,-,N/A,,Clear,0,2012-10-10 09:53:00
5:53 AM,77.0,75.0,94,29.99,7.0,Calm,Calm,-,N/A,,Clear,0,2012-10-10 10:53:00
6:34 AM,75.2,73.4,94,30.00,4.0,NE,3.5,-,N/A,,Mostly Cloudy,50,2012-10-10 11:34:00
6:53 AM,75.9,73.9,94,30.01,5.0,Calm,Calm,-,N/A,,Overcast,0,2012-10-10 11:53:00
7:31 AM,75.2,73.4,94,30.02,4.0,Calm,Calm,-,N/A,,Mostly Cloudy,0,2012-10-10 12:31:00
7:53 AM,75.0,73.9,96,30.03,4.0,Calm,Calm,-,N/A,,Scattered Clouds,0,2012-10-10 12:53:00
8:11 AM,77.0,75.2,94,30.03,5.0,NE,3.5,-,0.00,Rain,Light Rain,40,2012-10-10 13:11:00
8:29 AM,78.8,75.2,89,30.04,6.0,Calm,Calm,-,0.00,,Overcast,0,2012-10-10 13:29:00
8:41 AM,78.8,75.2,89,30.04,7.0,SE,3.5,-,0.00,,Overcast,130,2012-10-10 13:41:00
8:53 AM,79.0,75.0,88,30.05,7.0,Calm,Calm,-,0.00,,Mostly Cloudy,0,2012-10-10 13:53:00
9:07 AM,80.6,75.2,84,30.05,8.0,ENE,4.6,-,N/A,,Scattered Clouds,70,2012-10-10 14:07:00
9:53 AM,84.0,77.0,79,30.08,9.0,East,4.6,-,N/A,,Scattered Clouds,80,2012-10-10 14:53:00
10:08 AM,82.4,75.2,79,30.07,9.0,East,5.8,-,N/A,,Mostly Cloudy,80,2012-10-10 15:08:00
10:20 AM,82.4,77.0,84,30.07,9.0,East,5.8,-,N/A,,Overcast,80,2012-10-10 15:20:00
10:33 AM,84.2,75.2,74,30.07,10.0,East,5.8,-,N/A,,Mostly Cloudy,100,2012-10-10 15:33:00
10:45 AM,84.2,77.0,79,30.07,10.0,ESE,6.9,-,N/A,,Partly Cloudy,120,2012-10-10 15:45:00
10:53 AM,82.9,75.9,79,30.07,10.0,SE,5.8,-,N/A,,Scattered Clouds,140,2012-10-10 15:53:00
11:53 AM,87.1,77.0,72,30.07,10.0,SE,10.4,-,N/A,,Clear,130,2012-10-10 16:53:00
12:53 PM,89.1,75.9,65,30.05,10.0,SE,10.4,-,N/A,,Clear,140,2012-10-10 17:53:00
1:53 PM,84.0,73.0,69,30.03,10.0,SE,11.5,-,N/A,,Mostly Cloudy,130,2012-10-10 18:53:00
2:53 PM,84.0,73.0,69,30.01,10.0,ESE,10.4,-,N/A,,Mostly Cloudy,120,2012-10-10 19:53:00
3:53 PM,84.0,73.0,69,30.02,10.0,East,12.7,-,N/A,,Partly Cloudy,90,2012-10-10 20:53:00
4:53 PM,82.0,73.0,74,30.00,10.0,ESE,11.5,-,N/A,,Clear,110,2012-10-10 21:53:00
5:53 PM,81.0,73.0,77,30.00,10.0,ESE,13.8,-,N/A,,Clear,120,2012-10-10 22:53:00
6:53 PM,80.1,73.0,79,30.02,10.0,SE,15.0,18.4,N/A,,Clear,130,2012-10-10 23:53:00
7:53 PM,79.0,73.0,82,30.03,10.0,ESE,15.0,23.0,N/A,,Clear,110,2012-10-11 00:53:00
8:53 PM,79.0,75.0,88,30.05,10.0,ESE,15.0,-,N/A,,Clear,120,2012-10-11 01:53:00
9:53 PM,79.0,75.0,88,30.05,10.0,ESE,10.4,-,N/A,,Clear,120,2012-10-11 02:53:00
10:53 PM,79.0,75.0,88,30.06,10.0,SE,10.4,-,N/A,,Partly Cloudy,140,2012-10-11 03:53:00
11:53 PM,79.0,73.9,84,30.06,10.0,SSE,5.8,-,N/A,,Clear,160,2012-10-11 04:53:00